JBU7 KJFK-EGLL

Flight info

Callsign JBU7
Flight time N/A
Altitude 33000
Route GREKI DCT JUDDS DCT MARTN DCT TOPPS N635A RIKAL/M078F330 NATS NETKI/N0449F330 DCT BOFUM Q37 MALUD Q38 NUGRA
Aircraft A321/M-SDE3FGHIRWY/LB1

Departure

Time 2026-05-08 01:46
Airport John F. Kennedy International Airport (KJFK)

Arrival

Time N/A
Airport London Heathrow Airport (EGLL)
Time Latitude Longitude Altitude Speed Heading
2026-05-08 00:34 40.64740 -73.77648 25 ft 0 kts 230°
2026-05-08 01:31 40.64745 -73.77641 22 ft 4 kts 230°
2026-05-08 01:31 40.64758 -73.77622 22 ft 4 kts 198°
2026-05-08 01:31 40.64778 -73.77615 24 ft 4 kts 229°
2026-05-08 01:31 40.64778 -73.77597 22 ft 3 kts 301°
2026-05-08 01:32 40.64767 -73.77573 22 ft 0 kts 301°
2026-05-08 01:37 40.64768 -73.77574 24 ft 0 kts 301°
2026-05-08 01:37 40.64770 -73.77580 24 ft 2 kts 301°
2026-05-08 01:37 40.64786 -73.77609 24 ft 6 kts 309°
2026-05-08 01:38 40.64825 -73.77621 24 ft 6 kts 14°
2026-05-08 01:38 40.64843 -73.77609 24 ft 0 kts 32°
2026-05-08 01:40 40.64844 -73.77608 24 ft 0 kts 32°
2026-05-08 01:40 40.64856 -73.77598 24 ft 6 kts 32°
2026-05-08 01:40 40.64906 -73.77546 20 ft 11 kts 40°
2026-05-08 01:41 40.64969 -73.77475 21 ft 12 kts 42°
2026-05-08 01:41 40.65039 -73.77428 20 ft 11 kts 17°
2026-05-08 01:41 40.65111 -73.77386 21 ft 12 kts 31°
2026-05-08 01:41 40.65127 -73.77298 20 ft 11 kts 122°
2026-05-08 01:42 40.65085 -73.77216 22 ft 11 kts 122°
2026-05-08 01:42 40.65049 -73.77133 23 ft 10 kts 121°
2026-05-08 01:42 40.65011 -73.77053 21 ft 10 kts 121°
2026-05-08 01:42 40.64974 -73.76973 21 ft 11 kts 120°
2026-05-08 01:43 40.64936 -73.76888 22 ft 11 kts 120°
2026-05-08 01:43 40.64897 -73.76803 22 ft 11 kts 121°
2026-05-08 01:43 40.64884 -73.76713 21 ft 10 kts 65°
2026-05-08 01:43 40.64938 -73.76653 21 ft 11 kts 32°
2026-05-08 01:44 40.65003 -73.76603 21 ft 11 kts 30°
2026-05-08 01:44 40.65068 -73.76552 21 ft 11 kts 32°
2026-05-08 01:44 40.65095 -73.76472 22 ft 10 kts 105°
2026-05-08 01:44 40.65087 -73.76448 22 ft 0 kts 116°
2026-05-08 01:45 40.65052 -73.76373 22 ft 15 kts 140°
2026-05-08 01:45 40.64956 -73.76403 22 ft 16 kts 210°
2026-05-08 01:46 40.64709 -73.76603 22 ft 74 kts 211°
2026-05-08 01:46 40.64082 -73.77089 28 ft 132 kts 210°
2026-05-08 01:46 40.63170 -73.77811 61 ft 173 kts 213°
2026-05-08 01:46 40.62148 -73.78632 681 ft 172 kts 204°
2026-05-08 01:47 40.60991 -73.79048 1378 ft 169 kts 188°
2026-05-08 01:47 40.59846 -73.79170 1867 ft 168 kts 181°
2026-05-08 01:47 40.58686 -73.79060 2324 ft 168 kts 169°
2026-05-08 01:48 40.56508 -73.78092 3117 ft 174 kts 163°
2026-05-08 01:48 40.55301 -73.77475 3181 ft 197 kts 162°
2026-05-08 01:48 40.53939 -73.76747 3055 ft 234 kts 158°
2026-05-08 01:48 40.52347 -73.75525 2643 ft 282 kts 144°
2026-05-08 01:49 40.51085 -73.73610 3358 ft 276 kts 112°
2026-05-08 01:49 40.50802 -73.71172 4064 ft 271 kts 77°
2026-05-08 01:49 40.51536 -73.68924 4664 ft 268 kts 51°
2026-05-08 01:49 40.52859 -73.67245 5268 ft 266 kts 28°
2026-05-08 01:50 40.54546 -73.66355 5878 ft 264 kts 13°
2026-05-08 01:50 40.56318 -73.65693 6496 ft 265 kts 13°
2026-05-08 01:50 40.58102 -73.65041 7088 ft 268 kts 13°
2026-05-08 01:50 40.59913 -73.64381 7674 ft 270 kts 12°
2026-05-08 01:51 40.61734 -73.63715 8234 ft 273 kts 12°
2026-05-08 01:51 40.63562 -73.63042 8783 ft 276 kts 12°
2026-05-08 01:51 40.65438 -73.62349 9338 ft 279 kts 12°
2026-05-08 01:51 40.67332 -73.61650 9827 ft 284 kts 11°
2026-05-08 01:52 40.69260 -73.60941 10198 ft 295 kts 11°
2026-05-08 01:52 40.71307 -73.60194 10323 ft 313 kts 10°
2026-05-08 01:52 40.73463 -73.59406 10456 ft 331 kts 10°
2026-05-08 01:52 40.75724 -73.58577 10587 ft 348 kts 10°
2026-05-08 01:53 40.78118 -73.57694 10708 ft 364 kts 10°
2026-05-08 01:53 40.80607 -73.56774 10831 ft 380 kts 11°
2026-05-08 01:53 40.83209 -73.55807 10962 ft 395 kts 11°
2026-05-08 01:53 40.85881 -73.54804 11222 ft 404 kts 11°
2026-05-08 01:54 40.88582 -73.53787 11635 ft 410 kts 11°
2026-05-08 01:54 40.91392 -73.52733 12067 ft 415 kts 10°
2026-05-08 01:54 40.94157 -73.51697 12486 ft 420 kts 10°
2026-05-08 01:54 40.96992 -73.50635 12911 ft 425 kts 10°
2026-05-08 01:55 40.99859 -73.49563 13360 ft 429 kts 10°
2026-05-08 01:55 41.02743 -73.48483 13795 ft 432 kts 10°
2026-05-08 01:55 41.05660 -73.47393 14207 ft 437 kts 10°
2026-05-08 01:55 41.08564 -73.46306 14652 ft 441 kts 10°
2026-05-08 01:56 41.11534 -73.45197 15069 ft 445 kts
2026-05-08 01:56 41.14534 -73.44076 15443 ft 450 kts 10°
2026-05-08 01:56 41.17565 -73.42939 15836 ft 454 kts 10°
2026-05-08 01:56 41.20621 -73.41790 16212 ft 458 kts
2026-05-08 01:57 41.23696 -73.40631 16555 ft 462 kts 10°
2026-05-08 01:57 41.26805 -73.39459 16898 ft 466 kts
2026-05-08 01:57 41.29940 -73.38274 17228 ft 470 kts
2026-05-08 01:57 41.33099 -73.37077 17577 ft 473 kts 10°
2026-05-08 01:58 41.36228 -73.35891 17885 ft 477 kts
2026-05-08 01:58 41.39426 -73.34681 18205 ft 481 kts
2026-05-08 01:58 41.42702 -73.33441 18522 ft 484 kts 10°
2026-05-08 01:58 41.45854 -73.31932 18847 ft 493 kts 20°
2026-05-08 01:59 41.48865 -73.29674 19162 ft 503 kts 31°
2026-05-08 01:59 41.51600 -73.26687 19477 ft 510 kts 42°
2026-05-08 01:59 41.54119 -73.23310 19829 ft 512 kts 43°
2026-05-08 01:59 41.56662 -73.19976 20116 ft 514 kts 38°
2026-05-08 02:00 41.59519 -73.17099 20409 ft 512 kts 27°
2026-05-08 02:00 41.62610 -73.14919 20705 ft 507 kts 18°
2026-05-08 02:00 41.65976 -73.13374 21006 ft 502 kts
2026-05-08 02:00 41.69338 -73.12576 21300 ft 494 kts 358°
2026-05-08 02:01 41.72757 -73.12472 21572 ft 486 kts 348°
2026-05-08 02:01 41.76092 -73.12961 21844 ft 483 kts 343°
2026-05-08 02:01 41.79425 -73.13539 22120 ft 485 kts 344°
2026-05-08 02:01 41.82789 -73.14117 22401 ft 487 kts 344°
2026-05-08 02:02 41.86149 -73.14690 22681 ft 489 kts 344°
2026-05-08 02:02 41.89539 -73.15263 22968 ft 490 kts 344°
2026-05-08 02:02 41.92921 -73.15835 23237 ft 492 kts 344°
2026-05-08 02:02 41.96332 -73.16416 23507 ft 494 kts 344°
2026-05-08 02:03 41.99739 -73.16997 23764 ft 496 kts 344°
2026-05-08 02:03 42.03178 -73.17584 24051 ft 497 kts 344°
2026-05-08 02:03 42.06590 -73.18164 24481 ft 494 kts 343°
2026-05-08 02:03 42.10010 -73.18744 24878 ft 493 kts 343°
2026-05-08 02:04 42.13404 -73.19319 25248 ft 492 kts 343°
2026-05-08 02:04 42.16810 -73.19899 25612 ft 491 kts 343°
2026-05-08 02:04 42.20152 -73.20473 25954 ft 491 kts 343°
2026-05-08 02:04 42.23528 -73.21056 26245 ft 490 kts 343°
2026-05-08 02:05 42.26924 -73.21647 26553 ft 490 kts 343°
2026-05-08 02:05 42.30295 -73.22234 26911 ft 489 kts 343°
2026-05-08 02:05 42.33678 -73.22817 27268 ft 488 kts 343°
2026-05-08 02:05 42.37033 -73.23392 27635 ft 486 kts 343°
2026-05-08 02:06 42.40399 -73.23971 27986 ft 485 kts 343°
2026-05-08 02:06 42.43757 -73.24554 28310 ft 484 kts 342°
2026-05-08 02:06 42.47091 -73.25136 28613 ft 484 kts 342°
2026-05-08 02:06 42.50438 -73.25538 28898 ft 494 kts 351°
2026-05-08 02:07 42.53957 -73.25046 29181 ft 510 kts
2026-05-08 02:07 42.57327 -73.23556 29431 ft 524 kts 18°
2026-05-08 02:07 42.60512 -73.21017 29694 ft 536 kts 33°
2026-05-08 02:07 42.63248 -73.17559 29955 ft 543 kts 48°
2026-05-08 02:08 42.65544 -73.13486 30132 ft 545 kts 52°
2026-05-08 02:08 42.67805 -73.09325 30352 ft 546 kts 52°
2026-05-08 02:08 42.70047 -73.05179 30609 ft 545 kts 52°
2026-05-08 02:08 42.72299 -73.01008 30870 ft 545 kts 52°
2026-05-08 02:09 42.74551 -72.96839 31120 ft 545 kts 52°
2026-05-08 02:09 42.76789 -72.92696 31367 ft 544 kts 52°
2026-05-08 02:09 42.79042 -72.88532 31596 ft 544 kts 52°
2026-05-08 02:09 42.81257 -72.84437 31819 ft 544 kts 52°
2026-05-08 02:10 42.83521 -72.80248 32061 ft 544 kts 52°
2026-05-08 02:10 42.85769 -72.76081 32267 ft 544 kts 52°
2026-05-08 02:10 42.87977 -72.71976 32447 ft 544 kts 52°
2026-05-08 02:10 42.90223 -72.67795 32648 ft 545 kts 52°
2026-05-08 02:11 42.92467 -72.63611 32832 ft 545 kts 52°
2026-05-08 02:11 42.94704 -72.59433 32873 ft 548 kts 52°
2026-05-08 02:11 42.99207 -72.50988 32884 ft 550 kts 53°
2026-05-08 02:12 43.02958 -72.43946 32899 ft 550 kts 53°
2026-05-08 02:12 43.08192 -72.34099 32880 ft 550 kts 53°
2026-05-08 02:13 43.11929 -72.27045 32879 ft 550 kts 53°
2026-05-08 02:13 43.16421 -72.18557 32900 ft 550 kts 53°
2026-05-08 02:14 43.20900 -72.10051 32898 ft 550 kts 53°
2026-05-08 02:14 43.25386 -72.01498 32885 ft 550 kts 53°
2026-05-08 02:15 43.29841 -71.92984 32880 ft 551 kts 54°
2026-05-08 02:15 43.34287 -71.84470 32876 ft 551 kts 54°
2026-05-08 02:16 43.38756 -71.75887 32878 ft 552 kts 54°
2026-05-08 02:16 43.43227 -71.67280 32883 ft 552 kts 54°
2026-05-08 02:17 43.47691 -71.58661 32880 ft 553 kts 54°
2026-05-08 02:17 43.52147 -71.50025 32878 ft 553 kts 54°
2026-05-08 02:18 43.56576 -71.41431 32876 ft 553 kts 54°
2026-05-08 02:18 43.61051 -71.32727 32876 ft 553 kts 55°
2026-05-08 02:19 43.65452 -71.24120 32874 ft 553 kts 55°
2026-05-08 02:19 43.69886 -71.15396 32870 ft 554 kts 55°
2026-05-08 02:20 43.74339 -71.06648 32868 ft 555 kts 55°
2026-05-08 02:20 43.78762 -70.97955 32866 ft 556 kts 56°
2026-05-08 02:21 43.83205 -70.89178 32867 ft 556 kts 56°
2026-05-08 02:21 43.87641 -70.80372 32865 ft 557 kts 56°
2026-05-08 02:22 43.92070 -70.71534 32866 ft 558 kts 56°
2026-05-08 02:22 43.96508 -70.62677 32865 ft 559 kts 56°
2026-05-08 02:23 44.00950 -70.53808 32863 ft 559 kts 56°
2026-05-08 02:23 44.05381 -70.44920 32863 ft 559 kts 57°
2026-05-08 02:24 44.09772 -70.36062 32861 ft 559 kts 57°
2026-05-08 02:24 44.14176 -70.27131 32860 ft 559 kts 57°
2026-05-08 02:25 44.18581 -70.18193 32862 ft 560 kts 57°
2026-05-08 02:25 44.22997 -70.09248 32864 ft 560 kts 57°
2026-05-08 02:26 44.27404 -70.00290 32862 ft 559 kts 57°
2026-05-08 02:26 44.31792 -69.91306 32856 ft 560 kts 58°
2026-05-08 02:27 44.36175 -69.82299 32851 ft 560 kts 58°
2026-05-08 02:27 44.40550 -69.73304 32844 ft 561 kts 58°
2026-05-08 02:28 44.44940 -69.64266 32839 ft 562 kts 58°
2026-05-08 02:28 44.49334 -69.55166 32822 ft 562 kts 58°
2026-05-08 02:29 44.53708 -69.46056 32817 ft 563 kts 58°
2026-05-08 02:29 44.58063 -69.36970 32812 ft 565 kts 58°
2026-05-08 02:30 44.62457 -69.27803 32806 ft 566 kts 58°
2026-05-08 02:30 44.66850 -69.18600 32803 ft 567 kts 58°
2026-05-08 02:31 44.71213 -69.09410 32797 ft 569 kts 59°
2026-05-08 02:31 44.75591 -69.00153 32798 ft 570 kts 59°
2026-05-08 02:32 44.79992 -68.90836 32801 ft 572 kts 59°
2026-05-08 02:32 44.84397 -68.81485 32805 ft 573 kts 59°
2026-05-08 02:33 44.88800 -68.72101 32808 ft 574 kts 59°
2026-05-08 02:33 44.93198 -68.62683 32810 ft 575 kts 59°
2026-05-08 02:34 44.97596 -68.53232 32815 ft 576 kts 59°
2026-05-08 02:34 45.01977 -68.43816 32820 ft 577 kts 59°
2026-05-08 02:35 45.06379 -68.34328 32821 ft 577 kts 59°
2026-05-08 02:35 45.10767 -68.24816 32817 ft 577 kts 59°
2026-05-08 02:36 45.15147 -68.15296 32816 ft 577 kts 59°
2026-05-08 02:36 45.19496 -68.05818 32812 ft 577 kts 59°
2026-05-08 02:37 45.23856 -67.96266 32815 ft 576 kts 60°
2026-05-08 02:37 45.28210 -67.86690 32797 ft 577 kts 60°
2026-05-08 02:38 45.32581 -67.77058 32792 ft 578 kts 60°
2026-05-08 02:38 45.37579 -67.68091 32789 ft 582 kts 49°
2026-05-08 02:39 45.42900 -67.59491 32779 ft 582 kts 49°
2026-05-08 02:39 45.48237 -67.50804 32775 ft 582 kts 50°
2026-05-08 02:40 45.53575 -67.42056 32774 ft 583 kts 50°
2026-05-08 02:40 45.58883 -67.33338 32768 ft 583 kts 50°
2026-05-08 02:41 45.64176 -67.24625 32761 ft 584 kts 50°
2026-05-08 02:41 45.69500 -67.15834 32757 ft 585 kts 50°
2026-05-08 02:42 45.74830 -67.07016 32751 ft 586 kts 50°
2026-05-08 02:42 45.80168 -66.98166 32744 ft 587 kts 50°
2026-05-08 02:43 45.85508 -66.89272 32740 ft 589 kts 50°
2026-05-08 02:43 45.90849 -66.80333 32736 ft 590 kts 50°
2026-05-08 02:44 45.96196 -66.71353 32731 ft 592 kts 50°
2026-05-08 02:44 46.01519 -66.62384 32731 ft 593 kts 50°
2026-05-08 02:45 46.06883 -66.53344 32751 ft 593 kts 50°
2026-05-08 02:45 46.12240 -66.44278 32748 ft 594 kts 50°
2026-05-08 02:46 46.17594 -66.35179 32742 ft 595 kts 50°
2026-05-08 02:46 46.22913 -66.26090 32741 ft 596 kts 50°
2026-05-08 02:47 46.28262 -66.16914 32742 ft 597 kts 50°
2026-05-08 02:47 46.33625 -66.07725 32746 ft 598 kts 50°
2026-05-08 02:48 46.38994 -65.98522 32750 ft 598 kts 50°
2026-05-08 02:48 46.44357 -65.89253 32752 ft 598 kts 51°
2026-05-08 02:49 46.49649 -65.80053 32755 ft 599 kts 51°
2026-05-08 02:49 46.54984 -65.70769 32755 ft 598 kts 51°
2026-05-08 02:50 46.60304 -65.61475 32750 ft 597 kts 51°
2026-05-08 02:50 46.65613 -65.52190 32746 ft 596 kts 51°
2026-05-08 02:51 46.70896 -65.42910 32743 ft 594 kts 51°
2026-05-08 02:51 46.76129 -65.33689 32740 ft 592 kts 51°
2026-05-08 02:52 46.81372 -65.24421 32739 ft 591 kts 51°
2026-05-08 02:52 46.86594 -65.15158 32739 ft 590 kts 51°
2026-05-08 02:53 46.91797 -65.05888 32739 ft 589 kts 51°
2026-05-08 02:53 46.96983 -64.96614 32739 ft 588 kts 51°
2026-05-08 02:54 47.02123 -64.87388 32739 ft 587 kts 51°
2026-05-08 02:54 47.07282 -64.78114 32738 ft 586 kts 51°
2026-05-08 02:55 47.14985 -64.64205 32730 ft 585 kts 51°
2026-05-08 02:56 47.20102 -64.54917 32733 ft 583 kts 51°
2026-05-08 02:56 47.25200 -64.45627 32731 ft 582 kts 51°
2026-05-08 02:57 47.30256 -64.36397 32732 ft 581 kts 51°
2026-05-08 02:57 47.35356 -64.27074 32716 ft 580 kts 51°
2026-05-08 02:58 47.40351 -64.17874 32710 ft 578 kts 52°
2026-05-08 02:58 47.45369 -64.08597 32731 ft 577 kts 52°
2026-05-08 02:59 47.50374 -63.99341 32708 ft 575 kts 52°
2026-05-08 02:59 47.54533 -63.91614 32710 ft 574 kts 51°
2026-05-08 03:00 47.59484 -63.82390 32711 ft 573 kts 52°
2026-05-08 03:00 47.64434 -63.73140 32710 ft 572 kts 52°
2026-05-08 03:01 47.69340 -63.63931 32708 ft 571 kts 52°
2026-05-08 03:01 47.74265 -63.54659 32701 ft 571 kts 52°
2026-05-08 03:02 47.79180 -63.45365 32702 ft 571 kts 52°
2026-05-08 03:02 47.84096 -63.36054 32695 ft 572 kts 52°
2026-05-08 03:03 47.89009 -63.26713 32695 ft 573 kts 52°
2026-05-08 03:03 47.93916 -63.17341 32690 ft 573 kts 52°
2026-05-08 03:04 47.98800 -63.08000 32688 ft 574 kts 52°
2026-05-08 03:04 48.03701 -62.98568 32703 ft 574 kts 52°
2026-05-08 03:05 48.08551 -62.89213 32675 ft 563 kts 53°
2026-05-08 03:05 48.13338 -62.79966 32683 ft 561 kts 53°
2026-05-08 03:06 48.18093 -62.70735 32671 ft 561 kts 53°
2026-05-08 03:06 48.22875 -62.61424 32674 ft 562 kts 53°
2026-05-08 03:07 48.27639 -62.52105 32676 ft 563 kts 53°
2026-05-08 03:07 48.32401 -62.42759 32682 ft 563 kts 53°
2026-05-08 03:08 48.37140 -62.33444 32684 ft 564 kts 53°
2026-05-08 03:08 48.41890 -62.24069 32686 ft 565 kts 53°
2026-05-08 03:09 48.46662 -62.14613 32689 ft 565 kts 53°
2026-05-08 03:09 48.51415 -62.05168 32687 ft 565 kts 53°
2026-05-08 03:10 48.56154 -61.95703 32688 ft 565 kts 54°
2026-05-08 03:10 48.60852 -61.86278 32685 ft 564 kts 54°
2026-05-08 03:11 48.65552 -61.76826 32685 ft 563 kts 54°
2026-05-08 03:11 48.70247 -61.67352 32686 ft 561 kts 54°
2026-05-08 03:12 48.74920 -61.57886 32687 ft 560 kts 55°
2026-05-08 03:12 48.79572 -61.48437 32687 ft 558 kts 55°
2026-05-08 03:13 48.84240 -61.38941 32652 ft 565 kts 56°
2026-05-08 03:13 48.88938 -61.29308 32656 ft 575 kts 57°
2026-05-08 03:14 48.93747 -61.19436 32645 ft 586 kts 57°
2026-05-08 03:14 48.98619 -61.09407 32644 ft 590 kts 57°
2026-05-08 03:15 49.03503 -60.99329 32643 ft 591 kts 57°
2026-05-08 03:15 49.08384 -60.89186 32645 ft 591 kts 57°
2026-05-08 03:16 49.13200 -60.79128 32648 ft 592 kts 57°
2026-05-08 03:16 49.18071 -60.68932 32651 ft 592 kts 56°
2026-05-08 03:17 49.22909 -60.58803 32651 ft 593 kts 57°
2026-05-08 03:17 49.27760 -60.48573 32654 ft 594 kts 57°
2026-05-08 03:18 49.32602 -60.38303 32653 ft 594 kts 57°
2026-05-08 03:18 49.37439 -60.28004 32650 ft 595 kts 57°
2026-05-08 03:19 49.42267 -60.17711 32651 ft 596 kts 57°
2026-05-08 03:19 49.47116 -60.07367 32654 ft 596 kts 56°
2026-05-08 03:20 49.51963 -59.96959 32652 ft 596 kts 56°
2026-05-08 03:20 49.56760 -59.86611 32650 ft 597 kts 56°
2026-05-08 03:21 49.61565 -59.76200 32652 ft 597 kts 56°
2026-05-08 03:21 49.66379 -59.65731 32655 ft 598 kts 56°
2026-05-08 03:22 49.71191 -59.55243 32660 ft 598 kts 57°
2026-05-08 03:22 49.75983 -59.44725 32664 ft 598 kts 57°
2026-05-08 03:23 49.80736 -59.34247 32668 ft 597 kts 57°
2026-05-08 03:23 49.85508 -59.23705 32668 ft 597 kts 57°
2026-05-08 03:24 49.90272 -59.13153 32666 ft 597 kts 57°
2026-05-08 03:24 49.95025 -59.02580 32669 ft 597 kts 57°
2026-05-08 03:25 49.99760 -58.91983 32668 ft 596 kts 57°
2026-05-08 03:25 50.04467 -58.81395 32681 ft 595 kts 57°
2026-05-08 03:26 50.09163 -58.70816 32679 ft 592 kts 57°
2026-05-08 03:26 50.13805 -58.60325 32676 ft 590 kts 57°
2026-05-08 03:27 50.18453 -58.49763 32668 ft 590 kts 57°
2026-05-08 03:27 50.23087 -58.39177 32662 ft 590 kts 57°
2026-05-08 03:28 50.27722 -58.28565 32654 ft 591 kts 56°
2026-05-08 03:28 50.32363 -58.17925 32651 ft 592 kts 56°
2026-05-08 03:29 50.36977 -58.07278 32646 ft 592 kts 57°
2026-05-08 03:29 50.41587 -57.96560 32650 ft 593 kts 57°
2026-05-08 03:30 50.48480 -57.80506 32664 ft 592 kts 57°
2026-05-08 03:31 50.57632 -57.59033 32664 ft 586 kts 58°
2026-05-08 03:32 50.64347 -57.43149 32664 ft 580 kts 58°
2026-05-08 03:32 50.68798 -57.32584 32670 ft 576 kts 58°
2026-05-08 03:33 50.73209 -57.22079 32672 ft 571 kts 59°
2026-05-08 03:33 50.77542 -57.11684 32672 ft 567 kts 59°
2026-05-08 03:34 50.81864 -57.01278 32680 ft 564 kts 59°
2026-05-08 03:34 50.86158 -56.90916 32682 ft 561 kts 59°
2026-05-08 03:35 50.90439 -56.80571 32684 ft 558 kts 59°
2026-05-08 03:35 50.94634 -56.70366 32680 ft 555 kts 60°
2026-05-08 03:36 50.98826 -56.60088 32680 ft 553 kts 60°
2026-05-08 03:36 51.03012 -56.49821 32682 ft 550 kts 60°
2026-05-08 03:37 51.07167 -56.39625 32684 ft 548 kts 60°
2026-05-08 03:37 51.11253 -56.29534 32686 ft 545 kts 61°
2026-05-08 03:38 51.15331 -56.19398 32687 ft 541 kts 62°
2026-05-08 03:38 51.19374 -56.09304 32693 ft 538 kts 62°
2026-05-08 03:39 51.23393 -55.99264 32690 ft 535 kts 62°
2026-05-08 03:39 51.27379 -55.89275 32692 ft 531 kts 62°
2026-05-08 03:40 51.31307 -55.79387 32690 ft 528 kts 63°
2026-05-08 03:40 51.34888 -55.70326 32695 ft 526 kts 63°
2026-05-08 03:41 51.38782 -55.60416 32688 ft 524 kts 63°
2026-05-08 03:41 51.42661 -55.50530 32684 ft 523 kts 63°
2026-05-08 03:42 51.46523 -55.40652 32682 ft 522 kts 63°
2026-05-08 03:42 51.50370 -55.30774 32675 ft 522 kts 63°
2026-05-08 03:43 51.54213 -55.20867 32675 ft 523 kts 63°
2026-05-08 03:43 51.58032 -55.10988 32668 ft 524 kts 63°
2026-05-08 03:44 51.61882 -55.00999 32664 ft 525 kts 63°
2026-05-08 03:44 51.65712 -54.90993 32666 ft 525 kts 63°
2026-05-08 03:45 51.69524 -54.80993 32664 ft 527 kts 62°
2026-05-08 03:45 51.73355 -54.70931 32666 ft 527 kts 63°
2026-05-08 03:46 51.77183 -54.60836 32665 ft 527 kts 63°
2026-05-08 03:46 51.80828 -54.50575 32666 ft 523 kts 70°
2026-05-08 03:47 51.83906 -54.39922 32674 ft 523 kts 70°
2026-05-08 03:47 51.86989 -54.29245 32676 ft 523 kts 70°
2026-05-08 03:48 51.90066 -54.18575 32682 ft 523 kts 70°
2026-05-08 03:48 51.93113 -54.07947 32683 ft 522 kts 70°
2026-05-08 03:49 51.96163 -53.97253 32677 ft 522 kts 70°
2026-05-08 03:49 51.99206 -53.86570 32680 ft 521 kts 70°
2026-05-08 03:50 52.02240 -53.75864 32677 ft 521 kts 71°
2026-05-08 03:50 52.05243 -53.65169 32678 ft 521 kts 71°
2026-05-08 03:51 52.08247 -53.54452 32685 ft 520 kts 71°
2026-05-08 03:51 52.11239 -53.43747 32690 ft 519 kts 71°
2026-05-08 03:52 52.14196 -53.33086 32690 ft 519 kts 71°
2026-05-08 03:52 52.17162 -53.22343 32693 ft 518 kts 70°
2026-05-08 03:53 52.20112 -53.11631 32692 ft 518 kts 70°
2026-05-08 03:53 52.23043 -53.00921 32696 ft 516 kts 70°
2026-05-08 03:54 52.25936 -52.90275 32700 ft 515 kts 70°
2026-05-08 03:54 52.28837 -52.79580 32707 ft 515 kts 70°
2026-05-08 03:55 52.31738 -52.68876 32702 ft 514 kts 70°
2026-05-08 03:55 52.34612 -52.58170 32664 ft 512 kts 70°
2026-05-08 03:56 52.37465 -52.47497 32638 ft 512 kts 70°
2026-05-08 03:56 52.40312 -52.36800 32635 ft 512 kts 70°
2026-05-08 03:57 52.43130 -52.26152 32639 ft 512 kts 70°
2026-05-08 03:57 52.45958 -52.15434 32650 ft 512 kts 70°
2026-05-08 03:58 52.48781 -52.04688 32649 ft 512 kts 70°
2026-05-08 03:58 52.51596 -51.93948 32648 ft 512 kts 70°
2026-05-08 03:59 52.54377 -51.83262 32651 ft 511 kts 70°
2026-05-08 03:59 52.57155 -51.72490 32648 ft 511 kts 70°
2026-05-08 04:00 52.59927 -51.61701 32651 ft 512 kts 70°
2026-05-08 04:00 52.62695 -51.50919 32653 ft 511 kts 70°
2026-05-08 04:01 52.65454 -51.40128 32652 ft 510 kts 70°
2026-05-08 04:01 52.68202 -51.29348 32649 ft 510 kts 70°
2026-05-08 04:02 52.70931 -51.18557 32648 ft 510 kts 70°
2026-05-08 04:02 52.73632 -51.07799 32653 ft 510 kts 70°
2026-05-08 04:03 52.76335 -50.96970 32656 ft 510 kts 70°
2026-05-08 04:03 52.80372 -50.80713 32657 ft 510 kts 70°
2026-05-08 04:04 52.83057 -50.69861 32657 ft 509 kts 70°
2026-05-08 04:04 52.85709 -50.59077 32657 ft 509 kts 70°
2026-05-08 04:05 52.88378 -50.48194 32660 ft 510 kts 70°
2026-05-08 04:05 52.91030 -50.37316 32663 ft 510 kts 70°
2026-05-08 04:06 52.93677 -50.26384 32665 ft 510 kts 70°
2026-05-08 04:06 52.96314 -50.15462 32667 ft 510 kts 70°
2026-05-08 04:07 52.98921 -50.04583 32664 ft 510 kts 70°
2026-05-08 04:07 53.01577 -49.93636 32668 ft 511 kts 68°
2026-05-08 04:08 53.04321 -49.82748 32676 ft 510 kts 68°
2026-05-08 04:08 53.07063 -49.71948 32677 ft 510 kts 68°
2026-05-08 04:09 53.09788 -49.61079 32677 ft 509 kts 68°
2026-05-08 04:09 53.12485 -49.50166 32691 ft 509 kts 68°
2026-05-08 04:10 53.15166 -49.39271 32735 ft 508 kts 68°
2026-05-08 04:10 53.17843 -49.28355 32755 ft 508 kts 68°
2026-05-08 04:11 53.20512 -49.17451 32761 ft 507 kts 68°
2026-05-08 04:11 53.23150 -49.06604 32765 ft 507 kts 68°
2026-05-08 04:12 53.25791 -48.95694 32766 ft 506 kts 68°
2026-05-08 04:12 53.28421 -48.84766 32766 ft 506 kts 68°
2026-05-08 04:13 53.31038 -48.73848 32765 ft 506 kts 68°
2026-05-08 04:13 53.33640 -48.62924 32774 ft 505 kts 68°
2026-05-08 04:14 53.36215 -48.52006 32774 ft 504 kts 68°
2026-05-08 04:14 53.38773 -48.41156 32775 ft 503 kts 68°
2026-05-08 04:15 53.41342 -48.30237 32781 ft 503 kts 68°
2026-05-08 04:15 53.43889 -48.19316 32782 ft 502 kts 68°
2026-05-08 04:16 53.45995 -48.10244 32784 ft 501 kts 68°
2026-05-08 04:16 53.48522 -47.99328 32788 ft 501 kts 68°
2026-05-08 04:17 53.51030 -47.88417 32792 ft 500 kts 67°
2026-05-08 04:17 53.53529 -47.77519 32793 ft 499 kts 68°
2026-05-08 04:18 53.55993 -47.66673 32798 ft 499 kts 68°
2026-05-08 04:18 53.58460 -47.55747 32800 ft 499 kts 68°
2026-05-08 04:19 53.60927 -47.44830 32800 ft 499 kts 68°
2026-05-08 04:19 53.63383 -47.33911 32806 ft 498 kts 68°
2026-05-08 04:20 53.65816 -47.22977 32809 ft 498 kts 68°
2026-05-08 04:20 53.68232 -47.12024 32811 ft 497 kts 68°
2026-05-08 04:21 53.70642 -47.01090 32816 ft 497 kts 67°
2026-05-08 04:21 53.73052 -46.90164 32821 ft 496 kts 67°
2026-05-08 04:22 53.75447 -46.79244 32821 ft 495 kts 67°
2026-05-08 04:22 53.77813 -46.68387 32827 ft 494 kts 67°
2026-05-08 04:23 53.80167 -46.57468 32827 ft 494 kts 67°
2026-05-08 04:23 53.82505 -46.46539 32829 ft 493 kts 66°
2026-05-08 04:24 53.84835 -46.35631 32841 ft 492 kts 66°
2026-05-08 04:24 53.87148 -46.24718 32840 ft 492 kts 66°
2026-05-08 04:25 53.89448 -46.13875 32835 ft 491 kts 66°
2026-05-08 04:25 53.91745 -46.02969 32844 ft 491 kts 66°
2026-05-08 04:26 53.94030 -45.92045 32844 ft 491 kts 66°
2026-05-08 04:26 53.96304 -45.81110 32848 ft 491 kts 66°
2026-05-08 04:27 53.98573 -45.70162 32851 ft 490 kts 67°
2026-05-08 04:27 54.00824 -45.59222 32854 ft 490 kts 67°
2026-05-08 04:28 54.03071 -45.48255 32861 ft 491 kts 67°
2026-05-08 04:28 54.05291 -45.37340 32861 ft 491 kts 68°
2026-05-08 04:29 54.07508 -45.26374 32951 ft 490 kts 68°
2026-05-08 04:29 54.09725 -45.15362 33054 ft 492 kts 68°
2026-05-08 04:30 54.11936 -45.04322 33077 ft 492 kts 68°
2026-05-08 04:30 54.14136 -44.93267 33086 ft 492 kts 69°
2026-05-08 04:31 54.16322 -44.82186 33088 ft 492 kts 69°
2026-05-08 04:31 54.18490 -44.71177 33088 ft 493 kts 69°
2026-05-08 04:32 54.20672 -44.60046 33089 ft 493 kts 70°
2026-05-08 04:32 54.22840 -44.48900 33089 ft 494 kts 70°
2026-05-08 04:33 54.24982 -44.37815 33089 ft 494 kts 70°
2026-05-08 04:33 54.27139 -44.26613 33091 ft 495 kts 70°
2026-05-08 04:34 54.29279 -44.15419 33095 ft 495 kts 70°
2026-05-08 04:34 54.31406 -44.04268 33105 ft 495 kts 70°
2026-05-08 04:35 54.33518 -43.93041 33099 ft 495 kts 70°
2026-05-08 04:35 54.35623 -43.81794 33102 ft 496 kts 70°
2026-05-08 04:36 54.37729 -43.70539 33101 ft 496 kts 70°
2026-05-08 04:36 54.39830 -43.59257 33102 ft 496 kts 71°
2026-05-08 04:37 54.41914 -43.47967 33102 ft 496 kts 70°
2026-05-08 04:37 54.43992 -43.36650 33105 ft 496 kts 70°
2026-05-08 04:38 54.46043 -43.25386 33108 ft 497 kts 70°
2026-05-08 04:38 54.48095 -43.14041 33110 ft 497 kts 70°
2026-05-08 04:39 54.50135 -43.02683 33111 ft 497 kts 70°
2026-05-08 04:39 54.52167 -42.91294 33110 ft 497 kts 70°
2026-05-08 04:40 54.54193 -42.79886 33109 ft 498 kts 70°
2026-05-08 04:40 54.56213 -42.68470 33109 ft 498 kts 70°
2026-05-08 04:41 54.58213 -42.57103 33107 ft 499 kts 70°
2026-05-08 04:41 54.60220 -42.45629 33107 ft 499 kts 70°
2026-05-08 04:42 54.62207 -42.34137 33113 ft 500 kts 70°
2026-05-08 04:42 54.64177 -42.22624 33118 ft 500 kts 70°
2026-05-08 04:43 54.66141 -42.11100 33120 ft 500 kts 70°
2026-05-08 04:43 54.68107 -41.99552 33119 ft 501 kts 70°
2026-05-08 04:44 54.70069 -41.87991 33123 ft 501 kts 70°
2026-05-08 04:44 54.71996 -41.76491 33126 ft 500 kts 70°
2026-05-08 04:45 54.73928 -41.64901 33127 ft 500 kts 70°
2026-05-08 04:45 54.75844 -41.53330 33128 ft 499 kts 70°
2026-05-08 04:46 54.77740 -41.41774 33125 ft 498 kts 70°
2026-05-08 04:46 54.79609 -41.30281 33128 ft 498 kts 70°
2026-05-08 04:47 54.81488 -41.18748 33129 ft 497 kts 70°
2026-05-08 04:47 54.83351 -41.07192 33136 ft 496 kts 70°
2026-05-08 04:48 54.85193 -40.95661 33138 ft 495 kts 70°
2026-05-08 04:48 54.87013 -40.84206 33137 ft 495 kts 70°
2026-05-08 04:49 54.88831 -40.72687 33137 ft 494 kts 70°
2026-05-08 04:49 54.90636 -40.61154 33138 ft 494 kts 70°
2026-05-08 04:50 54.92431 -40.49620 33138 ft 494 kts 70°
2026-05-08 04:50 54.94214 -40.38109 33137 ft 493 kts 70°
2026-05-08 04:51 54.95984 -40.26589 33136 ft 492 kts 70°
2026-05-08 04:51 54.97742 -40.15075 33136 ft 492 kts 70°
2026-05-08 04:52 54.99479 -40.03539 33136 ft 492 kts 71°
2026-05-08 04:52 55.01178 -39.91990 33138 ft 491 kts 70°
2026-05-08 04:53 55.02819 -39.80528 33139 ft 490 kts 71°
2026-05-08 04:53 55.04443 -39.68976 33137 ft 490 kts 71°
2026-05-08 04:54 55.06050 -39.57454 33136 ft 489 kts 71°
2026-05-08 04:54 55.07673 -39.45923 33136 ft 489 kts 71°
2026-05-08 04:55 55.09282 -39.34381 33145 ft 489 kts 71°
2026-05-08 04:55 55.10868 -39.22842 33143 ft 488 kts 71°
2026-05-08 04:56 55.12436 -39.11302 33146 ft 488 kts 71°
2026-05-08 04:56 55.13996 -38.99764 33143 ft 488 kts 71°
2026-05-08 04:57 55.15550 -38.88210 33133 ft 487 kts 70°
2026-05-08 04:57 55.17084 -38.76749 33130 ft 487 kts 71°
2026-05-08 04:58 55.18616 -38.65210 33129 ft 487 kts 71°
2026-05-08 04:58 55.20128 -38.53668 33126 ft 486 kts 71°
2026-05-08 04:59 55.21629 -38.42123 33127 ft 486 kts 71°
2026-05-08 04:59 55.23127 -38.30571 33125 ft 485 kts 71°
2026-05-08 05:00 55.24612 -38.19040 33126 ft 485 kts 71°
2026-05-08 05:00 55.26068 -38.07548 33125 ft 485 kts 71°
2026-05-08 05:01 55.27516 -37.96003 33135 ft 484 kts 71°
2026-05-08 05:01 55.28964 -37.84464 33140 ft 483 kts 71°
2026-05-08 05:02 55.30402 -37.72939 33139 ft 483 kts 71°
2026-05-08 05:02 55.31810 -37.61504 33137 ft 482 kts 71°
2026-05-08 05:03 55.33208 -37.49986 33137 ft 482 kts 71°
2026-05-08 05:03 55.34599 -37.38478 33135 ft 481 kts 71°
2026-05-08 05:04 55.35985 -37.26962 33135 ft 481 kts 71°
2026-05-08 05:04 55.37359 -37.15457 33137 ft 481 kts 71°
2026-05-08 05:05 55.38709 -37.04012 33139 ft 480 kts 72°
2026-05-08 05:05 55.40049 -36.92515 33145 ft 480 kts 72°
2026-05-08 05:06 55.41384 -36.81004 33148 ft 479 kts 72°
2026-05-08 05:06 55.42486 -36.71457 33147 ft 478 kts 72°
2026-05-08 05:07 55.43803 -36.59971 33150 ft 478 kts 72°
2026-05-08 05:07 55.45094 -36.48502 33149 ft 477 kts 73°
2026-05-08 05:08 55.46369 -36.37043 33148 ft 475 kts 73°
2026-05-08 05:08 55.47634 -36.25613 33149 ft 474 kts 73°
2026-05-08 05:09 55.48883 -36.14284 33168 ft 473 kts 73°
2026-05-08 05:09 55.50122 -36.02905 33162 ft 472 kts 73°
2026-05-08 05:10 55.51972 -35.85850 33157 ft 471 kts 73°
2026-05-08 05:11 55.53186 -35.74514 33151 ft 470 kts 73°
2026-05-08 05:11 55.54379 -35.63180 33152 ft 469 kts 73°
2026-05-08 05:12 55.55555 -35.51824 33153 ft 469 kts 73°
2026-05-08 05:12 55.56723 -35.40544 33168 ft 469 kts 73°
2026-05-08 05:13 55.57898 -35.29198 33168 ft 469 kts 73°
2026-05-08 05:13 55.59055 -35.17833 33164 ft 469 kts 74°
2026-05-08 05:14 55.60192 -35.06488 33156 ft 469 kts 74°
2026-05-08 05:14 55.61323 -34.95119 33164 ft 469 kts 74°
2026-05-08 05:15 55.62437 -34.83756 33160 ft 468 kts 74°
2026-05-08 05:15 55.63552 -34.72389 33178 ft 468 kts 74°
2026-05-08 05:16 55.64644 -34.61120 33174 ft 467 kts 74°
2026-05-08 05:16 55.65728 -34.49785 33174 ft 466 kts 74°
2026-05-08 05:17 55.66803 -34.38438 33182 ft 466 kts 74°
2026-05-08 05:17 55.67866 -34.27117 33179 ft 465 kts 75°
2026-05-08 05:18 55.68914 -34.15820 33178 ft 464 kts 75°
2026-05-08 05:18 55.69946 -34.04603 33176 ft 463 kts 75°
2026-05-08 05:19 55.70971 -33.93317 33181 ft 463 kts 75°
2026-05-08 05:19 55.71986 -33.82040 33181 ft 462 kts 75°
2026-05-08 05:20 55.72985 -33.70785 33170 ft 462 kts 75°
2026-05-08 05:20 55.73981 -33.59512 33175 ft 462 kts 75°
2026-05-08 05:21 55.74958 -33.48313 33187 ft 462 kts 75°
2026-05-08 05:21 55.75929 -33.37041 33171 ft 461 kts 75°
2026-05-08 05:22 55.76888 -33.25782 33179 ft 461 kts 75°
2026-05-08 05:22 55.77837 -33.14503 33183 ft 461 kts 75°
2026-05-08 05:23 55.78776 -33.03230 33185 ft 460 kts 74°
2026-05-08 05:23 55.79697 -32.91979 33186 ft 460 kts 74°
2026-05-08 05:24 55.80611 -32.80735 33182 ft 458 kts 74°
2026-05-08 05:24 55.81513 -32.69534 33185 ft 457 kts 74°
2026-05-08 05:25 55.82397 -32.58427 33189 ft 456 kts 73°
2026-05-08 05:25 55.83270 -32.47248 33183 ft 455 kts 73°
2026-05-08 05:26 55.84139 -32.36092 33188 ft 454 kts 73°
2026-05-08 05:26 55.84985 -32.24974 33192 ft 453 kts 73°
2026-05-08 05:27 55.85826 -32.13861 33194 ft 452 kts 73°
2026-05-08 05:27 55.86661 -32.02823 33192 ft 451 kts 73°
2026-05-08 05:28 55.87480 -31.91735 33191 ft 451 kts 73°
2026-05-08 05:28 55.88285 -31.80644 33189 ft 451 kts 74°
2026-05-08 05:29 55.89079 -31.69650 33189 ft 450 kts 73°
2026-05-08 05:29 55.89871 -31.58565 33191 ft 451 kts 73°
2026-05-08 05:30 55.90645 -31.47468 33183 ft 451 kts 73°
2026-05-08 05:30 55.91415 -31.36363 33191 ft 451 kts 73°
2026-05-08 05:31 55.92174 -31.25285 33189 ft 450 kts 73°
2026-05-08 05:31 55.92919 -31.14200 33192 ft 450 kts 73°
2026-05-08 05:32 55.93643 -31.03203 33197 ft 448 kts 73°
2026-05-08 05:32 55.94371 -30.92156 33200 ft 447 kts 73°
2026-05-08 05:33 55.95085 -30.81102 33210 ft 446 kts 73°
2026-05-08 05:33 55.95778 -30.70193 33206 ft 445 kts 73°
2026-05-08 05:34 55.96460 -30.59216 33205 ft 443 kts 72°
2026-05-08 05:34 55.97136 -30.48280 33205 ft 442 kts 72°
2026-05-08 05:35 55.97801 -30.37379 33204 ft 441 kts 72°
2026-05-08 05:35 55.98466 -30.26511 33205 ft 440 kts 72°
2026-05-08 05:36 55.99109 -30.15663 33208 ft 439 kts 72°
2026-05-08 05:36 55.99737 -30.04821 33201 ft 438 kts 72°
2026-05-08 05:37 56.00293 -29.94028 33200 ft 439 kts 74°
2026-05-08 05:37 56.00724 -29.83108 33199 ft 440 kts 75°
2026-05-08 05:38 56.01112 -29.72185 33198 ft 440 kts 75°
2026-05-08 05:38 56.01512 -29.61334 33197 ft 440 kts 75°
2026-05-08 05:39 56.01922 -29.50415 33195 ft 440 kts 75°
2026-05-08 05:39 56.02323 -29.39479 33195 ft 441 kts 75°
2026-05-08 05:40 56.02710 -29.28532 33192 ft 442 kts 75°
2026-05-08 05:40 56.03084 -29.17548 33193 ft 443 kts 76°
2026-05-08 05:41 56.03454 -29.06520 33193 ft 444 kts 76°
2026-05-08 05:41 56.03811 -28.95479 33193 ft 445 kts 76°
2026-05-08 05:42 56.04157 -28.84477 33192 ft 446 kts 77°
2026-05-08 05:42 56.04497 -28.73385 33191 ft 447 kts 77°
2026-05-08 05:43 56.04832 -28.62259 33196 ft 448 kts 77°
2026-05-08 05:43 56.05152 -28.51099 33199 ft 449 kts 78°
2026-05-08 05:44 56.05463 -28.39929 33203 ft 450 kts 78°
2026-05-08 05:44 56.05767 -28.28749 33208 ft 451 kts 78°
2026-05-08 05:45 56.06057 -28.17597 33211 ft 451 kts 78°
2026-05-08 05:45 56.06340 -28.06367 33215 ft 452 kts 78°
2026-05-08 05:46 56.06614 -27.95124 33216 ft 452 kts 79°
2026-05-08 05:46 56.06872 -27.83853 33219 ft 453 kts 79°
2026-05-08 05:47 56.07126 -27.72589 33221 ft 453 kts 79°
2026-05-08 05:47 56.07381 -27.61367 33223 ft 453 kts 79°
2026-05-08 05:48 56.07614 -27.50092 33225 ft 453 kts 79°
2026-05-08 05:48 56.07830 -27.38793 33226 ft 453 kts 79°
2026-05-08 05:49 56.08037 -27.27504 33228 ft 454 kts 80°
2026-05-08 05:49 56.08243 -27.16201 33227 ft 455 kts 80°
2026-05-08 05:50 56.08440 -27.04875 33226 ft 455 kts 80°
2026-05-08 05:50 56.08624 -26.93526 33195 ft 455 kts 81°
2026-05-08 05:51 56.08790 -26.82235 33192 ft 457 kts 81°
2026-05-08 05:51 56.08947 -26.70866 33186 ft 458 kts 82°
2026-05-08 05:52 56.09102 -26.59440 33180 ft 459 kts 82°
2026-05-08 05:52 56.09246 -26.47970 33178 ft 460 kts 82°
2026-05-08 05:53 56.09379 -26.36506 33185 ft 461 kts 83°
2026-05-08 05:53 56.09501 -26.25017 33178 ft 462 kts 83°
2026-05-08 05:54 56.09614 -26.13580 33180 ft 463 kts 83°
2026-05-08 05:54 56.09714 -26.02030 33191 ft 464 kts 83°
2026-05-08 05:55 56.09801 -25.90465 33188 ft 464 kts 83°
2026-05-08 05:55 56.09875 -25.78972 33190 ft 464 kts 83°
2026-05-08 05:56 56.09947 -25.67408 33193 ft 464 kts 83°
2026-05-08 05:56 56.10014 -25.55832 33194 ft 464 kts 84°
2026-05-08 05:57 56.10057 -25.44257 33194 ft 464 kts 84°
2026-05-08 05:57 56.10088 -25.32684 33195 ft 465 kts 84°
2026-05-08 05:58 56.10104 -25.23068 33196 ft 465 kts 84°
2026-05-08 05:58 56.10120 -25.11479 33196 ft 466 kts 84°
2026-05-08 05:59 56.10135 -24.99874 33196 ft 466 kts 85°
2026-05-08 05:59 56.10133 -24.88254 33196 ft 466 kts 85°
2026-05-08 06:00 56.10117 -24.76636 33195 ft 467 kts 85°
2026-05-08 06:00 56.10086 -24.65085 33193 ft 467 kts 85°
2026-05-08 06:01 56.10054 -24.53430 33192 ft 468 kts 86°
2026-05-08 06:01 56.10001 -24.41777 33192 ft 468 kts 86°
2026-05-08 06:02 56.09938 -24.30102 33192 ft 468 kts 86°
2026-05-08 06:02 56.09865 -24.18418 33187 ft 469 kts 86°
2026-05-08 06:03 56.09785 -24.06808 33183 ft 469 kts 86°
2026-05-08 06:03 56.09696 -23.95109 33189 ft 470 kts 86°
2026-05-08 06:04 56.09586 -23.83391 33183 ft 470 kts 87°
2026-05-08 06:04 56.09465 -23.71677 33191 ft 470 kts 87°
2026-05-08 06:05 56.09340 -23.59950 33193 ft 470 kts 87°
2026-05-08 06:05 56.09203 -23.48238 33192 ft 470 kts 87°
2026-05-08 06:06 56.09050 -23.36503 33194 ft 470 kts 87°
2026-05-08 06:06 56.08897 -23.24875 33186 ft 470 kts 88°
2026-05-08 06:07 56.08727 -23.13175 33189 ft 470 kts 88°
2026-05-08 06:07 56.08549 -23.01464 33183 ft 470 kts 88°
2026-05-08 06:08 56.08351 -22.89748 33181 ft 470 kts 88°
2026-05-08 06:08 56.08146 -22.78036 33177 ft 470 kts 89°
2026-05-08 06:09 56.07928 -22.66401 33174 ft 470 kts 89°
2026-05-08 06:09 56.07702 -22.54698 33179 ft 470 kts 89°
2026-05-08 06:10 56.07470 -22.42988 33186 ft 471 kts 90°
2026-05-08 06:10 56.07212 -22.31266 33193 ft 472 kts 90°
2026-05-08 06:11 56.06943 -22.19519 33194 ft 472 kts 90°
2026-05-08 06:11 56.06677 -22.07783 33194 ft 472 kts 90°
2026-05-08 06:12 56.06401 -21.96034 33194 ft 472 kts 90°
2026-05-08 06:12 56.06115 -21.84295 33196 ft 472 kts 90°
2026-05-08 06:13 56.05804 -21.72561 33201 ft 471 kts 90°
2026-05-08 06:13 56.05476 -21.60942 33200 ft 470 kts 90°
2026-05-08 06:14 56.05152 -21.49262 33199 ft 470 kts 90°
2026-05-08 06:14 56.04815 -21.37575 33198 ft 470 kts 90°
2026-05-08 06:15 56.04463 -21.25906 33196 ft 470 kts 90°
2026-05-08 06:15 56.04108 -21.14235 33194 ft 470 kts 91°
2026-05-08 06:16 56.03747 -21.02547 33192 ft 470 kts 91°
2026-05-08 06:16 56.03371 -20.90947 33187 ft 470 kts 91°
2026-05-08 06:17 56.02766 -20.73410 33180 ft 471 kts 92°
2026-05-08 06:17 56.02359 -20.61711 33177 ft 472 kts 92°
2026-05-08 06:18 56.01946 -20.49996 33186 ft 472 kts 92°
2026-05-08 06:18 56.01520 -20.38341 33177 ft 473 kts 92°
2026-05-08 06:19 56.01070 -20.26597 33177 ft 473 kts 93°
2026-05-08 06:19 56.00608 -20.14858 33186 ft 474 kts 93°
2026-05-08 06:20 56.00119 -20.03112 33174 ft 474 kts 96°
2026-05-08 06:20 55.98558 -19.91661 33176 ft 475 kts 107°
2026-05-08 06:21 55.96566 -19.80397 33170 ft 475 kts 107°
2026-05-08 06:21 55.94570 -19.69146 33172 ft 475 kts 107°
2026-05-08 06:22 55.92569 -19.57956 33170 ft 476 kts 107°
2026-05-08 06:22 55.90549 -19.46713 33180 ft 476 kts 108°
2026-05-08 06:23 55.88528 -19.35485 33167 ft 476 kts 108°
2026-05-08 06:23 55.86484 -19.24254 33164 ft 476 kts 108°
2026-05-08 06:24 55.84443 -19.13119 33171 ft 476 kts 108°
2026-05-08 06:24 55.82380 -19.01930 33175 ft 476 kts 109°
2026-05-08 06:25 55.80307 -18.90732 33162 ft 476 kts 109°
2026-05-08 06:25 55.78232 -18.79557 33174 ft 476 kts 109°
2026-05-08 06:26 55.76136 -18.68387 33161 ft 476 kts 109°
2026-05-08 06:26 55.74038 -18.57237 33159 ft 476 kts 109°
2026-05-08 06:27 55.71939 -18.46156 33163 ft 476 kts 109°
2026-05-08 06:27 55.69814 -18.35039 33153 ft 476 kts 110°
2026-05-08 06:28 55.67680 -18.23912 33164 ft 476 kts 110°
2026-05-08 06:28 55.65548 -18.12808 33149 ft 476 kts 110°
2026-05-08 06:29 55.63401 -18.01725 33148 ft 476 kts 110°
2026-05-08 06:29 55.61233 -17.90649 33140 ft 476 kts 110°
2026-05-08 06:30 55.59059 -17.79577 33134 ft 476 kts 110°
2026-05-08 06:30 55.56885 -17.68595 33132 ft 476 kts 110°
2026-05-08 06:31 55.54699 -17.57563 33125 ft 476 kts 111°
2026-05-08 06:31 55.52505 -17.46550 33121 ft 476 kts 111°
2026-05-08 06:32 55.50292 -17.35536 33120 ft 476 kts 111°
2026-05-08 06:32 55.48069 -17.24534 33011 ft 474 kts 111°
2026-05-08 06:33 55.45844 -17.13584 33007 ft 474 kts 112°
2026-05-08 06:33 55.43606 -17.02637 33009 ft 476 kts 112°
2026-05-08 06:34 55.41366 -16.91673 33015 ft 476 kts 112°
2026-05-08 06:34 55.39111 -16.80709 33021 ft 477 kts 112°
2026-05-08 06:35 55.36837 -16.69747 33039 ft 477 kts 112°
2026-05-08 06:35 55.34556 -16.58791 33059 ft 477 kts 113°
2026-05-08 06:36 55.32270 -16.47914 33068 ft 477 kts 113°
2026-05-08 06:36 55.29960 -16.36988 33070 ft 477 kts 113°
2026-05-08 06:37 55.27643 -16.26059 33072 ft 478 kts 113°
2026-05-08 06:37 55.25320 -16.15148 33070 ft 478 kts 113°
2026-05-08 06:38 55.22981 -16.04259 33066 ft 477 kts 114°
2026-05-08 06:38 55.20628 -15.93378 33065 ft 478 kts 114°
2026-05-08 06:39 55.18283 -15.82546 33060 ft 478 kts 114°
2026-05-08 06:39 55.15925 -15.71649 33055 ft 479 kts 114°
2026-05-08 06:40 55.13555 -15.60780 33054 ft 479 kts 115°
2026-05-08 06:40 55.11154 -15.49904 33054 ft 479 kts 115°
2026-05-08 06:41 55.08744 -15.39050 33055 ft 480 kts 115°
2026-05-08 06:41 55.06341 -15.28257 33059 ft 480 kts 115°
2026-05-08 06:42 55.03918 -15.17405 33072 ft 480 kts 116°
2026-05-08 06:42 55.01495 -15.06565 33078 ft 481 kts 114°
2026-05-08 06:43 55.00087 -14.95080 33077 ft 491 kts 96°
2026-05-08 06:43 55.00092 -14.83152 33076 ft 493 kts 92°
2026-05-08 06:44 55.00114 -14.71187 33072 ft 493 kts 93°
2026-05-08 06:44 55.00114 -14.59221 33069 ft 494 kts 93°
2026-05-08 06:45 55.00120 -14.47240 33068 ft 495 kts 93°
2026-05-08 06:45 55.00114 -14.35316 33069 ft 495 kts 94°
2026-05-08 06:46 55.00089 -14.23317 33069 ft 496 kts 94°
2026-05-08 06:46 55.00058 -14.11306 33070 ft 496 kts 94°
2026-05-08 06:47 54.99811 -13.99297 33069 ft 492 kts 102°
2026-05-08 06:47 54.98390 -13.87712 33066 ft 489 kts 108°
2026-05-08 06:48 54.97099 -13.78137 33063 ft 490 kts 108°
2026-05-08 06:48 54.95554 -13.66577 33060 ft 490 kts 108°
2026-05-08 06:49 54.94004 -13.55032 33059 ft 490 kts 108°
2026-05-08 06:49 54.92428 -13.43480 33058 ft 491 kts 108°
2026-05-08 06:50 54.90845 -13.32005 33057 ft 491 kts 109°
2026-05-08 06:50 54.89248 -13.20460 33058 ft 492 kts 109°
2026-05-08 06:51 54.87631 -13.08902 33059 ft 492 kts 109°
2026-05-08 06:51 54.86006 -12.97360 33059 ft 492 kts 109°
2026-05-08 06:52 54.84370 -12.85802 33057 ft 493 kts 109°
2026-05-08 06:52 54.82736 -12.74327 33057 ft 493 kts 109°
2026-05-08 06:53 54.81075 -12.62790 33055 ft 493 kts 109°
2026-05-08 06:53 54.79401 -12.51257 33054 ft 494 kts 110°
2026-05-08 06:54 54.77718 -12.39716 33055 ft 494 kts 110°
2026-05-08 06:54 54.76016 -12.28170 33054 ft 495 kts 110°
2026-05-08 06:55 54.74311 -12.16605 33055 ft 496 kts 110°
2026-05-08 06:55 54.72588 -12.05050 33058 ft 496 kts 110°
2026-05-08 06:56 54.70847 -11.93494 33058 ft 496 kts 110°
2026-05-08 06:56 54.69097 -11.81939 33057 ft 497 kts 110°
2026-05-08 06:57 54.67351 -11.70451 33059 ft 497 kts 111°
2026-05-08 06:57 54.65581 -11.58912 33062 ft 497 kts 111°
2026-05-08 06:58 54.63799 -11.47363 33061 ft 497 kts 111°
2026-05-08 06:58 54.62000 -11.35840 33062 ft 497 kts 111°
2026-05-08 06:59 54.60186 -11.24308 33063 ft 498 kts 111°
2026-05-08 06:59 54.58385 -11.12867 33063 ft 497 kts 111°
2026-05-08 07:00 54.56557 -11.01365 33062 ft 498 kts 111°
2026-05-08 07:00 54.54720 -10.89867 33062 ft 498 kts 111°
2026-05-08 07:01 54.52864 -10.78365 33062 ft 498 kts 111°
2026-05-08 07:01 54.51006 -10.66892 33061 ft 498 kts 111°
2026-05-08 07:02 54.49129 -10.55401 33060 ft 498 kts 111°
2026-05-08 07:02 54.47236 -10.43930 33057 ft 499 kts 111°
2026-05-08 07:03 54.45345 -10.32450 33057 ft 499 kts 111°
2026-05-08 07:03 54.43438 -10.20957 33057 ft 500 kts 111°
2026-05-08 07:04 54.41511 -10.09478 33058 ft 500 kts 112°
2026-05-08 07:04 54.39579 -9.98081 33055 ft 501 kts 112°
2026-05-08 07:05 54.37619 -9.86612 33052 ft 501 kts 112°
2026-05-08 07:05 54.35653 -9.75131 33052 ft 501 kts 112°
2026-05-08 07:06 54.33689 -9.63675 33052 ft 501 kts 112°
2026-05-08 07:06 54.31712 -9.52209 33054 ft 501 kts 112°
2026-05-08 07:07 54.29716 -9.40766 33057 ft 501 kts 112°
2026-05-08 07:07 54.27719 -9.29404 33057 ft 500 kts 112°
2026-05-08 07:08 54.25705 -9.17993 33055 ft 500 kts 112°
2026-05-08 07:08 54.23688 -9.06627 33055 ft 500 kts 112°